Powrót do katalogu

YAOGAN-32 A

AktywnyMilitariaSSO
NORAD 43642·PAYLOAD·🇨🇳 China

Wystrzelony Oct 9, 2018 z Jiuquan Satellite Launch Center

Loading…

Następne Przeloty (najbliższe 24 godziny)

TLE

ŚwieżeSource: Space-Track

Epoka: Sep 14, 2026, 15:17 UTC

1 43642U 18077A   26257.63683249  .00000180  00000-0  43955-4 0  9994
2 43642  98.1432 285.0920 0000999  91.0913 269.0403 14.63263858422923

Śledź YAOGAN-32 A w czasie rzeczywistym z AllMySat

Download on the App Store